| time (UTC) | temp F | wind direction | speed MPH | gust MPH | rain 1hr in | rain 24hr in | rain mn in | humidity % | barometer mb |
| 20260904125621 | 54 | 206 | 0.0 | 0.0 | 0.00 | 0.00 | 0.00 | 34 | 1013.4 |
| 20260904124614 | 54 | 206 | 0.0 | 0.0 | 0.00 | 0.00 | 0.00 | 34 | 1013.2 |
| 20260904123621 | 54 | 206 | 0.0 | 0.0 | 0.00 | 0.00 | 0.00 | 34 | 1013.2 |
| 20260904122627 | 55 | 206 | 0.0 | 0.0 | 0.00 | 0.00 | 0.00 | 33 | 1013.1 |
| 20260904121613 | 55 | 207 | 0.0 | 0.0 | 0.00 | 0.00 | 0.00 | 36 | 1012.9 |
| 20260904120618 | 57 | 215 | 0.0 | 0.0 | 0.00 | 0.00 | 0.00 | 32 | 1012.8 |
| 20260904115624 | 58 | 215 | 0.0 | 0.0 | 0.00 | 0.00 | 0.00 | 32 | 1012.7 |
| 20260904114610 | 58 | 207 | 0.0 | 0.0 | 0.00 | 0.00 | 0.00 | 31 | 1012.7 |
| 20260904113617 | 57 | 213 | 0.0 | 0.0 | 0.00 | 0.00 | 0.00 | 33 | 1012.7 |
| 20260904112623 | 58 | 209 | 0.0 | 0.0 | 0.00 | 0.00 | 0.00 | 32 | 1012.7 |
| 20260904111612 | 58 | 216 | 0.0 | 0.0 | 0.00 | 0.00 | 0.00 | 32 | 1012.7 |
| 20260904110618 | 58 | 219 | 0.0 | 0.0 | 0.00 | 0.00 | 0.00 | 32 | 1012.6 |
| 20260904105628 | 58 | 213 | 0.0 | 0.0 | 0.00 | 0.00 | 0.00 | 32 | 1012.5 |
| 20260904104616 | 58 | 199 | 0.0 | 0.0 | 0.00 | 0.00 | 0.00 | 33 | 1012.4 |
| 20260904103628 | 57 | 209 | 0.0 | 0.0 | 0.00 | 0.00 | 0.00 | 33 | 1012.3 |
| 20260904102617 | 57 | 209 | 0.0 | 0.0 | 0.00 | 0.00 | 0.00 | 35 | 1012.2 |
| 20260904101622 | 57 | 203 | 0.0 | 1.0 | 0.00 | 0.00 | 0.00 | 34 | 1012.1 |
| 20260904100649 | 57 | 206 | 0.0 | 1.0 | 0.00 | 0.00 | 0.00 | 35 | 1012.1 |
| 20260904095637 | 56 | 195 | 0.0 | 0.0 | 0.00 | 0.00 | 0.00 | 35 | 1012.0 |
| 20260904094647 | 56 | 214 | 0.0 | 0.0 | 0.00 | 0.00 | 0.00 | 36 | 1011.9 |
| 20260904093613 | 55 | 221 | 0.0 | 0.0 | 0.00 | 0.00 | 0.00 | 36 | 1012.0 |
| 20260904092642 | 55 | 224 | 0.0 | 0.0 | 0.00 | 0.00 | 0.00 | 38 | 1011.7 |
| 20260904091648 | 54 | 232 | 0.0 | 0.0 | 0.00 | 0.00 | 0.00 | 39 | 1011.7 |
| 20260904090619 | 55 | 270 | 0.0 | 0.0 | 0.00 | 0.00 | 0.00 | 37 | 1011.7 |
| 20260904085650 | 54 | 270 | 0.0 | 0.0 | 0.00 | 0.00 | 0.00 | 40 | 1011.8 |
| 20260904084617 | 54 | 271 | 0.0 | 0.0 | 0.00 | 0.00 | 0.00 | 41 | 1011.8 |
| 20260904083625 | 54 | 271 | 0.0 | 0.0 | 0.00 | 0.00 | 0.00 | 42 | 1011.7 |
| 20260904082612 | 53 | 271 | 0.0 | 0.0 | 0.00 | 0.00 | 0.00 | 41 | 1011.8 |
| 20260904081623 | 53 | 272 | 0.0 | 0.0 | 0.00 | 0.00 | 0.00 | 43 | 1011.8 |
| 20260904080624 | 53 | 272 | 0.0 | 0.0 | 0.00 | 0.00 | 0.00 | 46 | 1011.7 |
| 20260904075631 | 54 | 272 | 0.0 | 0.0 | 0.00 | 0.00 | 0.00 | 42 | 1011.7 |
| 20260904074615 | 54 | 272 | 0.0 | 0.0 | 0.00 | 0.00 | 0.00 | 42 | 1011.9 |
| 20260904073623 | 54 | 272 | 0.0 | 0.0 | 0.00 | 0.00 | 0.00 | 47 | 1011.9 |
| 20260904072629 | 54 | 272 | 0.0 | 0.0 | 0.00 | 0.00 | 0.00 | 47 | 1011.9 |
| 20260904071613 | 54 | 269 | 0.0 | 0.0 | 0.00 | 0.00 | 0.00 | 45 | 1011.9 |
| 20260904070619 | 56 | 270 | 0.0 | 0.0 | 0.00 | 0.00 | 0.00 | 41 | 1012.0 |
| 20260904065611 | 55 | 273 | 0.0 | 0.0 | 0.00 | 0.00 | 0.00 | 42 | 1012.1 |
| 20260904064618 | 55 | 274 | 0.0 | 0.0 | 0.00 | 0.00 | 0.00 | 43 | 1012.0 |
| 20260904063646 | 56 | 227 | 0.0 | 0.0 | 0.00 | 0.00 | 0.00 | 44 | 1011.9 |
| 20260904062612 | 56 | 226 | 0.0 | 0.0 | 0.00 | 0.00 | 0.00 | 46 | 1011.9 |
| 20260904061640 | 55 | 225 | 0.0 | 0.0 | 0.00 | 0.00 | 0.00 | 46 | 1011.9 |
| 20260904060640 | 55 | 226 | 0.0 | 0.0 | 0.00 | 0.00 | 0.00 | 44 | 1011.9 |
| 20260904055645 | 56 | 225 | 0.0 | 0.0 | 0.00 | 0.00 | 0.00 | 45 | 1011.9 |
| 20260904054614 | 57 | 283 | 0.0 | 0.0 | 0.00 | 0.00 | 0.00 | 44 | 1011.8 |
| 20260904053622 | 57 | 276 | 0.0 | 0.0 | 0.00 | 0.00 | 0.00 | 42 | 1011.9 |
| 20260904052649 | 57 | 255 | 0.0 | 0.0 | 0.00 | 0.00 | 0.00 | 41 | 1011.9 |
| 20260904051616 | 58 | 265 | 0.0 | 0.0 | 0.00 | 0.00 | 0.00 | 44 | 1012.0 |
| 20260904050648 | 58 | 277 | 0.0 | 0.0 | 0.00 | 0.00 | 0.00 | 42 | 1012.0 |
| 20260904045637 | 58 | 265 | 0.0 | 0.0 | 0.00 | 0.00 | 0.00 | 41 | 1012.1 |
| 20260904044623 | 59 | 253 | 0.0 | 0.0 | 0.00 | 0.00 | 0.00 | 38 | 1012.1 |
| 20260904043610 | 58 | 276 | 0.0 | 0.0 | 0.00 | 0.00 | 0.00 | 42 | 1012.1 |
| 20260904042621 | 58 | 269 | 0.0 | 0.0 | 0.00 | 0.00 | 0.00 | 42 | 1012.2 |
| 20260904041627 | 59 | 271 | 0.0 | 0.0 | 0.00 | 0.00 | 0.00 | 42 | 1012.3 |
| 20260904040614 | 59 | 191 | 0.0 | 0.0 | 0.00 | 0.00 | 0.00 | 40 | 1012.1 |
| 20260904035620 | 61 | 183 | 0.0 | 0.0 | 0.00 | 0.00 | 0.00 | 42 | 1012.1 |
| 20260904034624 | 62 | 302 | 0.0 | 0.0 | 0.00 | 0.00 | 0.00 | 34 | 1011.9 |
| 20260904033615 | 61 | 276 | 0.0 | 0.0 | 0.00 | 0.00 | 0.00 | 36 | 1012.1 |
| 20260904032622 | 62 | 247 | 0.0 | 0.0 | 0.00 | 0.00 | 0.00 | 42 | 1012.0 |
| 20260904031627 | 63 | 276 | 0.0 | 0.0 | 0.00 | 0.00 | 0.00 | 33 | 1012.0 |
| 20260904030618 | 63 | 276 | 0.0 | 0.0 | 0.00 | 0.00 | 0.00 | 35 | 1012.1 |
| 20260904025626 | 64 | 276 | 0.0 | 0.0 | 0.00 | 0.00 | 0.00 | 32 | 1011.9 |
| 20260904024611 | 65 | 264 | 0.0 | 0.0 | 0.00 | 0.00 | 0.00 | 30 | 1011.9 |
| 20260904023639 | 65 | 267 | 0.0 | 0.0 | 0.00 | 0.00 | 0.00 | 30 | 1011.8 |
| 20260904022624 | 65 | 272 | 0.0 | 0.0 | 0.00 | 0.00 | 0.00 | 30 | 1011.8 |
| 20260904021651 | 66 | 276 | 0.0 | 0.0 | 0.00 | 0.00 | 0.00 | 29 | 1011.8 |
| 20260904020621 | 66 | 275 | 0.0 | 0.0 | 0.00 | 0.00 | 0.00 | 30 | 1011.8 |
| 20260904015630 | 67 | 286 | 0.0 | 0.0 | 0.00 | 0.00 | 0.00 | 28 | 1011.8 |
| 20260904014617 | 68 | 261 | 0.0 | 0.0 | 0.00 | 0.00 | 0.00 | 28 | 1011.7 |
| 20260904013644 | 70 | 261 | 0.0 | 0.0 | 0.00 | 0.00 | 0.00 | 26 | 1011.9 |
| 20260904012612 | 72 | 244 | 0.0 | 2.0 | 0.00 | 0.00 | 0.00 | 23 | 1011.9 |
| 20260904011619 | 74 | 235 | 0.0 | 4.0 | 0.00 | 0.00 | 0.00 | 23 | 1011.8 |
| 20260904010626 | 75 | 234 | 0.0 | 0.0 | 0.00 | 0.00 | 0.00 | 23 | 1011.8 |
| 20260904005615 | 74 | 234 | 1.0 | 14.0 | 0.00 | 0.00 | 0.00 | 20 | 1011.7 |
| 20260904004626 | 74 | 213 | 5.0 | 16.0 | 0.00 | 0.00 | 0.00 | 21 | 1011.8 |
| 20260904003612 | 74 | 220 | 3.0 | 19.0 | 0.00 | 0.00 | 0.00 | 25 | 1011.7 |
| 20260904002625 | 75 | 211 | 4.0 | 21.0 | 0.00 | 0.00 | 0.00 | 24 | 1011.9 |
| 20260904001610 | 75 | 221 | 4.0 | 19.0 | 0.00 | 0.00 | 0.00 | 24 | 1011.8 |
| 20260904000612 | 75 | 210 | 5.0 | 25.0 | 0.00 | 0.00 | 0.00 | 25 | 1011.9 |
| 20260903235640 | 75 | 209 | 8.0 | 35.0 | 0.00 | 0.00 | 0.00 | 23 | 1011.9 |
| 20260903234629 | 75 | 208 | 4.0 | 17.0 | 0.00 | 0.00 | 0.00 | 25 | 1012.0 |
| 20260903233616 | 75 | 207 | 5.0 | 25.0 | 0.00 | 0.00 | 0.00 | 22 | 1012.1 |
| 20260903232623 | 75 | 205 | 6.0 | 21.0 | 0.00 | 0.00 | 0.00 | 20 | 1012.1 |
| 20260903231613 | 75 | 190 | 0.0 | 6.0 | 0.00 | 0.00 | 0.00 | 23 | 1012.1 |
| 20260903230621 | 74 | 178 | 2.0 | 9.0 | 0.00 | 0.00 | 0.00 | 19 | 1012.1 |
| 20260903225610 | 74 | 225 | 0.0 | 5.0 | 0.00 | 0.00 | 0.00 | 19 | 1012.3 |
| 20260903224618 | 75 | 215 | 1.0 | 10.0 | 0.00 | 0.00 | 0.00 | 21 | 1012.5 |
| 20260903223625 | 74 | 234 | 4.0 | 11.0 | 0.00 | 0.00 | 0.00 | 21 | 1012.7 |
| 20260903222616 | 74 | 192 | 0.0 | 14.0 | 0.00 | 0.00 | 0.00 | 20 | 1012.7 |
| 20260903221622 | 74 | 219 | 4.0 | 12.0 | 0.00 | 0.00 | 0.00 | 23 | 1012.8 |
| 20260903220626 | 74 | 188 | 1.0 | 22.0 | 0.00 | 0.00 | 0.00 | 20 | 1012.9 |
| 20260903215612 | 73 | 223 | 1.0 | 10.0 | 0.00 | 0.00 | 0.00 | 22 | 1012.9 |
| 20260903214621 | 74 | 232 | 4.0 | 14.0 | 0.00 | 0.00 | 0.00 | 19 | 1013.1 |
| 20260903213629 | 74 | 225 | 3.0 | 11.0 | 0.00 | 0.00 | 0.00 | 22 | 1013.1 |
| 20260903212615 | 74 | 224 | 4.0 | 20.0 | 0.00 | 0.00 | 0.00 | 22 | 1013.2 |
| 20260903211622 | 73 | 236 | 1.0 | 14.0 | 0.00 | 0.00 | 0.00 | 21 | 1013.3 |
| 20260903210614 | 73 | 233 | 0.0 | 17.0 | 0.00 | 0.00 | 0.00 | 19 | 1013.3 |
| 20260903205623 | 73 | 195 | 4.0 | 18.0 | 0.00 | 0.00 | 0.00 | 20 | 1013.5 |
| 20260903204610 | 73 | 211 | 3.0 | 20.0 | 0.00 | 0.00 | 0.00 | 20 | 1013.6 |
| 20260903203616 | 73 | 209 | 2.0 | 17.0 | 0.00 | 0.00 | 0.00 | 22 | 1013.8 |
| 20260903202624 | 73 | 213 | 3.0 | 19.0 | 0.00 | 0.00 | 0.00 | 22 | 1014.0 |
| 20260903201629 | 72 | 243 | 6.0 | 21.0 | 0.00 | 0.00 | 0.00 | 21 | 1014.0 |
| 20260903200618 | 72 | 212 | 4.0 | 19.0 | 0.00 | 0.00 | 0.00 | 22 | 1014.2 |
| 20260903195624 | 69 | 214 | 1.0 | 6.0 | 0.00 | 0.00 | 0.00 | 32 | 1014.2 |
| 20260903194615 | 67 | 161 | 0.0 | 4.0 | 0.00 | 0.00 | 0.00 | 41 | 1014.2 |
| 20260903193623 | 67 | 40 | 0.0 | 0.0 | 0.00 | 0.00 | 0.00 | 49 | 1014.4 |
| 20260903192610 | 66 | 37 | 0.0 | 3.0 | 0.00 | 0.00 | 0.00 | 51 | 1014.6 |
| 20260903191618 | 66 | 29 | 0.0 | 3.0 | 0.00 | 0.00 | 0.00 | 51 | 1014.8 |
| 20260903190628 | 66 | 30 | 0.0 | 0.0 | 0.00 | 0.00 | 0.00 | 47 | 1014.9 |
| 20260903185617 | 65 | 30 | 0.0 | 1.0 | 0.00 | 0.00 | 0.00 | 51 | 1015.0 |
| 20260903184624 | 65 | 5 | 0.0 | 0.0 | 0.00 | 0.00 | 0.00 | 50 | 1015.1 |
| 20260903183611 | 65 | 18 | 0.0 | 0.0 | 0.00 | 0.00 | 0.00 | 48 | 1015.2 |
| 20260903182622 | 65 | 38 | 0.0 | 0.0 | 0.00 | 0.00 | 0.00 | 48 | 1015.3 |
| 20260903181628 | 63 | 45 | 0.0 | 0.0 | 0.00 | 0.00 | 0.00 | 48 | 1015.6 |
| 20260903180628 | 63 | 70 | 0.0 | 0.0 | 0.00 | 0.00 | 0.00 | 47 | 1015.6 |
| 20260903175618 | 63 | 80 | 0.0 | 0.0 | 0.00 | 0.00 | 0.00 | 48 | 1015.8 |
| 20260903174645 | 62 | 79 | 0.0 | 0.0 | 0.00 | 0.00 | 0.00 | 45 | 1015.8 |
| 20260903173612 | 63 | 69 | 0.0 | 0.0 | 0.00 | 0.00 | 0.00 | 44 | 1016.0 |
| 20260903172637 | 64 | 51 | 0.0 | 0.0 | 0.00 | 0.00 | 0.00 | 45 | 1015.9 |
| 20260903171643 | 63 | 50 | 0.0 | 0.0 | 0.00 | 0.00 | 0.00 | 47 | 1016.0 |
| 20260903170629 | 62 | 49 | 0.0 | 0.0 | 0.00 | 0.00 | 0.00 | 46 | 1016.0 |
| 20260903165618 | 61 | 74 | 0.0 | 0.0 | 0.00 | 0.00 | 0.00 | 50 | 1016.2 |
| 20260903164627 | 61 | 74 | 0.0 | 0.0 | 0.00 | 0.00 | 0.00 | 48 | 1016.3 |
| 20260903163635 | 61 | 73 | 0.0 | 0.0 | 0.00 | 0.00 | 0.00 | 46 | 1016.3 |
| 20260903162621 | 61 | 82 | 0.0 | 0.0 | 0.00 | 0.00 | 0.00 | 48 | 1016.2 |
| 20260903161629 | 61 | 82 | 0.0 | 0.0 | 0.00 | 0.00 | 0.00 | 48 | 1016.1 |
| 20260903160621 | 62 | 128 | 0.0 | 0.0 | 0.00 | 0.00 | 0.00 | 48 | 1016.1 |
| 20260903155610 | 61 | 169 | 0.0 | 0.0 | 0.00 | 0.00 | 0.00 | 49 | 1016.3 |
| 20260903154636 | 60 | 169 | 0.0 | 0.0 | 0.00 | 0.00 | 0.00 | 53 | 1016.3 |
| 20260903153618 | 59 | 170 | 0.0 | 0.0 | 0.00 | 0.00 | 0.00 | 54 | 1016.3 |
| 20260903152646 | 58 | 169 | 0.0 | 0.0 | 0.00 | 0.00 | 0.00 | 54 | 1016.3 |
| 20260903151617 | 58 | 169 | 0.0 | 0.0 | 0.00 | 0.00 | 0.00 | 57 | 1016.4 |
| 20260903150645 | 57 | 168 | 0.0 | 1.0 | 0.00 | 0.00 | 0.00 | 58 | 1016.5 |
| 20260903145616 | 57 | 121 | 0.0 | 2.0 | 0.00 | 0.00 | 0.00 | 62 | 1016.5 |
| 20260903144624 | 57 | 142 | 0.0 | 2.0 | 0.00 | 0.00 | 0.00 | 59 | 1016.3 |
| 20260903143650 | 58 | 146 | 0.0 | 0.0 | 0.00 | 0.00 | 0.00 | 49 | 1016.3 |
| 20260903142621 | 56 | 221 | 0.0 | 0.0 | 0.00 | 0.00 | 0.00 | 53 | 1016.3 |
| 20260903141647 | 55 | 269 | 0.0 | 0.0 | 0.00 | 0.00 | 0.00 | 57 | 1016.1 |
| 20260903140614 | 53 | 274 | 0.0 | 0.0 | 0.00 | 0.00 | 0.00 | 59 | 1016.1 |
| 20260903135638 | 52 | 360 | 0.0 | 0.0 | 0.00 | 0.00 | 0.00 | 62 | 1016.2 |
| 20260903134622 | 51 | 271 | 0.0 | 0.0 | 0.00 | 0.00 | 0.00 | 62 | 1016.1 |
| 20260903133612 | 50 | 270 | 0.0 | 0.0 | 0.00 | 0.00 | 0.00 | 63 | 1016.0 |
| 20260903132617 | 49 | 271 | 0.0 | 0.0 | 0.00 | 0.00 | 0.00 | 64 | 1015.9 |
| 20260903131623 | 48 | 266 | 0.0 | 0.0 | 0.00 | 0.00 | 0.00 | 64 | 1015.8 |
| 20260903130611 | 48 | 273 | 0.0 | 0.0 | 0.00 | 0.00 | 0.00 | 64 | 1015.7 |